Regional Weather Roundup
Issued by NWS

Home | Current Version | Previous Version | Text Only | Print | Product List | Glossary On
Versions: 1 2 3 4 5 6 7 8 9 10 11 12 13 14 15 16 17 18 19 20 21 22 23 24 25 26 27 28 29 30 31 32 33 34 35 36 37 38 39 40 41 42 43 44 45 46 47 48 49 50
000
ASUS43 KMKX 262221
RWRWI

WISCONSIN REGIONAL WEATHER ROUNDUP
NATIONAL WEATHER SERVICE MILWAUKEE/SULLIVAN WI
500 PM CDT SUN APR 26 2015

NOTE: "FAIR" INDICATES FEW OR NO CLOUDS BELOW 12,000 FEET WITH NO
SIGNIFICANT WEATHER AND/OR OBSTRUCTIONS TO VISIBILITY.

WIZ001-002-006>008-014>016-023>028-262300-
NORTHWEST WISCONSIN

CITY           SKY/WX    TMP DP  RH WIND       PRES   REMARKS
SUPERIOR ARPT  SUNNY     46  29  50 E8        30.16S
ASHLAND        SUNNY     50  28  42 NE8       30.18R
HAYWARD        SUNNY     55  16  21 NE18G24   30.12S
SIREN          SUNNY     61  19  20 N10G16    30.10S
CUMBERLAND     SUNNY     59  21  23 N6        30.08S
RICE LAKE      SUNNY     60  24  24 NE12G17   30.09F
CHETEK         SUNNY     60  26  26 NW6G18    30.07S
LADYSMITH      SUNNY     60  21  21 N13G20    30.08S
EAU CLAIRE     SUNNY     62  21  20 N10G20    30.05F
MENOMONIE      SUNNY     62  18  18 N10       30.06F
NEW RICHMOND   SUNNY     62  18  18 N7        30.08F
OSCEOLA        SUNNY     63  24  22 NE10      30.11S
$$

WIZ003>005-009-010-017-018-262300-
NORTH CENTRAL WISCONSIN

CITY           SKY/WX    TMP DP  RH WIND       PRES   REMARKS
MANITOWISH WTR SUNNY     51  28  41 N12G18    30.10R
ARBOR VITAE    SUNNY     57  26  31 NE13G21   30.08R
WOODRUFF       SUNNY     57  26  31 NE13G21   30.08R
RHINELANDER    SUNNY     55  24  30 N10G20    30.06S
EAGLE RIVER    SUNNY     53  24  32 N12G20    30.06F
LAND O LAKES   SUNNY     52  28  38 N8        30.09S
PHILLIPS       SUNNY     55  25  31 N14G21    30.08R
TOMAHAWK       SUNNY     57  22  26 N10G18    30.06R
MEDFORD        SUNNY     59  22  24 N9G18     30.04S
MERRILL        SUNNY     60  24  24 N14G24    30.03R
$$

WIZ029-030-035-036-043>047-262300-
CENTRAL WISCONSIN

CITY           SKY/WX    TMP DP  RH WIND       PRES   REMARKS
WAUSAU         SUNNY     61  17  18 N10G20    30.01S
MOSINEE        SUNNY     61  19  20 NW12      30.03S
MARSHFIELD     SUNNY     63  22  20 N9        30.02F
STEVENS POINT  SUNNY     60  20  21 NW6G16    30.01F
WAUPACA        SUNNY     65  16  15 NW8G16    30.00S
WAUTOMA        SUNNY     64  17  16 N12G22    30.00F
WISC RAPIDS    SUNNY     63  17  17 N14G20    30.03F
CAMP DOUGLAS   SUNNY     62  21  20 N13       30.02S
$$

WIZ011>013-019>022-031-037>040-048>050-262300-
NORTHEAST WISCONSIN

CITY           SKY/WX    TMP DP  RH WIND       PRES   REMARKS
ANTIGO         SUNNY     57  24  27 N12       30.03R
SHAWANO        SUNNY     61  28  28 E13       30.01R
OCONTO         MOSUNNY   51  32  48 E8        30.03F
STURGEON BAY   MOSUNNY   54  28  37 NE17      30.05S
GREEN BAY      SUNNY     57  28  33 NE13      30.02S
MANITOWOC      SUNNY     51  25  36 NE10      30.03S
APPLETON       MOSUNNY   61  19  20 N9        30.00F
CLINTONVILLE   MOSUNNY   63  16  16 N10       29.98F
OSHKOSH        SUNNY     58  26  29 E5        30.00F
$$

WIZ032>034-041-042-053>061-262300-
SOUTHWEST WISCONSIN

CITY           SKY/WX    TMP DP  RH WIND       PRES   REMARKS
LA CROSSE      SUNNY     65  23  20 N7        30.03F
SPARTA         SUNNY     62  19  18 NE13G18   30.04S
VIROQUA        SUNNY     60  25  26 N9        30.03F
BOSCOBEL       SUNNY     64  24  21 NE9G17    30.02F
PRAIRIE DU CHI SUNNY     61  22  21 W8        30.02S
PLATTEVILLE    SUNNY     59  29  31 N9        30.02S
$$

WIZ056-057-062-063-064-067-068-262300-
SOUTH CENTRAL WISCONSIN

CITY           SKY/WX    TMP DP  RH WIND       PRES   REMARKS
REEDSBURG      SUNNY     60  24  26 N12       30.01F
BARABOO/DELLS  SUNNY     60  20  21 N6        30.02S
LONE ROCK      SUNNY     62  27  26 N8        30.02F
MINERAL POINT  SUNNY     61  23  23 N8G17     30.01F
MADISON        MOSUNNY   60  26  27 NE12      30.01F
MIDDLETON      SUNNY     61  22  22 NE8       30.02S
WATERTOWN      SUNNY     57  26  30 N10G18    30.01S
MONROE         SUNNY     57  30  35 N13       30.01S
JANESVILLE     SUNNY     61  21  21 N9G17     30.00F
$$

WIZ051-052-058>065-066-070>072-262300-
SOUTHEAST WISCONSIN

CITY           SKY/WX    TMP DP  RH WIND       PRES   REMARKS
MILWAUKEE      MOSUNNY   48  29  47 NE12G21   30.04R
WAUKESHA       NOT AVBL
MILWAUKEE/TIMM SUNNY     52  19  28 NE13      30.03S
RACINE         SUNNY     49  29  46 NE15      30.04R
BURLINGTON     SUNNY     55  26  33 E12G17    30.00S
KENOSHA        SUNNY     54  26  34 NE16      30.01S
FOND DU LAC    SUNNY     59  22  24 NE8       30.01F
SHEBOYGAN      SUNNY     51  25  36 MISG      30.03S
WEST BEND      SUNNY     54  27  35 E8        30.02R
JUNEAU         SUNNY     57  25  29 N6        30.02S
$$

LSZ147-162-262300-
LAKE SUPERIOR

STATION/POSITION TIME  TEMP    WIND        PRES    WAVE
                       AIR SEA DIR/SP/G            HT/PER
                 (UTC) (F)     (DEG/KT/KT) (MB)    (FT/S)
W MID LAKE BUOY  2150   36 35  280/  6/  6 1023.3F   1
DEVILS ISLAND    2200   38     100/  5/  6 1022.7F
PORT WING        2140   40      20/ 14/ 15 1021.3F
SAXON HARBOR     2100   39      40/  4/  6 1022.0
$$

LMZ867-665-643>646-262300-
LAKE MICHIGAN

STATION/POSITION TIME  TEMP    WIND        PRES    WAVE
                       AIR SEA DIR/SP/G            HT/PER
                 (UTC) (F)     (DEG/KT/KT) (MB)    (FT/S)
CHAMBERS ISLAND  2100   43      20/ 15/ 17 1017.3S
NORTHPORT PIER   2100   44     350/ 11/ 13 1017.3F
SISTER BAY       2017   53      20/ 20/ 25   N/A
KEWAUNEE LAKESHO 2112   44      60/  2/  4 1016.5F
SHEBOYGAN LAKESH 2200   42      30/  7/  8 1017.7S
PORT WASHINGTON  2100   45      40/ 10/ 12 1017.6
MILWAUKEE LAKESH 2200   42      30/ 12/ 14   N/A
KENOSHA   LAKESH 2200   43      20/ 11/ 14 1016.6S
$$

TC  - TEMPERATURE IN CELSIUS
VSB - VISIBILITY IN STATUTE MILES
WCI - WIND CHILL INDEX
HX  - HEAT INDEX



USA.gov is the U.S. government's official web portal to all federal, state and local government web resources and services.